Location: Aulus
(42.7909°N, 1.3399°E)
Time: 16:01:54
(UTC+00:00)

Cosmos 2366 rocket - Pass Details

Date: 05 August 2025
Orbit: 953 x 997 km, 82.9° (Epoch: 10 April)

Event Time Altitude Azimuth Distance (km) Brightness Sun altitude
Exits shadow 23:46:21 13° 88° (E) 2,463 6.1 -30.4°
Maximum altitude 23:47:15 13° 79° (E) 2,436 6.1 -30.4°
Drops below altitude 10° 23:50:03 10° 51° (NE) 2,687 6.7 -30.5°
Sets 23:53:56 0° 27° (NNE) 3,638 7.9 -30.5°
